Location: Seasalter
(51.3333°N, 1.0167°E)
Time: 05:36:36
(UTC+00:00)

ATLAS 5 CENTAUR R/B - Pass Details

Date: 30 April 2024
Orbit: 421 x 1170 km, 63.3° (Epoch: 18 May)

Event Time Altitude Azimuth Distance (km) Brightness Sun altitude
Rises 21:58:10 0° 315° (NW) 2,748 6.3 -19.0°
Reaches altitude 10° 22:00:25 10° 326° (NW) 1,953 5.4 -19.1°
Maximum altitude 22:04:23 31° 29° (NNE) 1,211 3.3 -19.4°
Enters shadow 22:08:52 11° 90° (E) 2,282 4.2 -19.7°
